Regional Weather Roundup
Issued by NWS

Home | Current Version | Previous Version | Graphics & Text | Print | Product List | Glossary On
Versions: 1 2 3 4 5 6 7 8 9 10 11 12 13 14 15 16 17 18 19 20 21 22 23 24 25 26 27 28 29 30 31 32 33 34 35 36 37 38 39 40 41 42 43 44 45 46 47 48 49 50
436
ASUS43 KOAX 271710
RWRNE

WEATHER ROUNDUP FOR NEBRASKA
NATIONAL WEATHER SERVICE OMAHA NE
1100 AM CST MON FEB 27 2017

NOTES: SATELLITE DATA IS BEING USED TO AUGMENT CLOUD COVER ABOVE
       12000 FEET.
       "FAIR" INDICATES FEW OR NO CLOUDS BELOW 12,000 FEET WITH NO
       SIGNIFICANT WEATHER AND/OR OBSTRUCTIONS TO VISIBILITY.

  * THESE STATIONS DO NOT REPORT WEATHER SUCH AS RAIN...SNOW OR FOG.

NEZ001>004-019>022-054>056-271800-
NEBRASKA PANHANDLE

CITY           SKY/WX    TMP DP  RH WIND       PRES   REMARKS
SCOTTSBLUFF    CLOUDY    23  14  68 SE8       29.67F WCI  14
ALLIANCE       CLOUDY    22  15  75 CALM      29.67F
CHADRON        CLOUDY    31  16  54 CALM      29.66S
KIMBALL        SUNNY     36  20  52 SW8       29.67R WCI  29
SIDNEY         CLOUDY    34  18  52 SW14      29.69S WCI  25
$$

NEZ057>060-069>072-079>082-271800-
SOUTHWEST NEBRASKA

CITY           SKY/WX    TMP DP  RH WIND       PRES   REMARKS
NORTH PLATTE   CLOUDY    42  26  53 SW8       29.79F
IMPERIAL       CLOUDY    35  24  64 S13       29.74F WCI  26
LEXINGTON      CLOUDY    40  26  57 S15       29.83F WCI  32
MCCOOK         CLOUDY    35  23  61 VRB3      29.81F
OGALLALA       CLOUDY    37  25  62 S9        29.74F WCI  30
$$

NEZ005>010-023>029-035>040-094-271800-
NORTH CENTRAL NEBRASKA

CITY           SKY/WX    TMP DP  RH WIND       PRES   REMARKS
VALENTINE      CLOUDY    36  24  62 S24       29.73S WCI  24
AINSWORTH      CLOUDY    35  25  66 S23       29.75F WCI  23
BROKEN BOW     SUNNY     38  24  57 S21G28    29.81F WCI  28
O`NEILL        CLOUDY    37  22  55 S16       29.82F WCI  27
ORD            SUNNY     39  23  52 S14       29.83F WCI  31
THEDFORD       CLOUDY    37  26  64 S18G26    29.76F WCI  27
$$

NEZ041-046>049-061>064-073>077-083>087-271800-
SOUTH CENTRAL NEBRASKA

CITY           SKY/WX    TMP DP  RH WIND       PRES   REMARKS
GRAND ISLAND   CLOUDY    45  28  51 S16       29.89F
AURORA         CLOUDY    44  28  53 S15G22    29.89F
HASTINGS       CLOUDY    45  27  49 S16G25    29.88F
HEBRON         MOSUNNY   47  25  42 S18       29.92F
HOLDREGE       MOSUNNY   43  25  49 S17G24    29.84F
KEARNEY *      CLOUDY    43  27  52 S15       29.87F
YORK           CLOUDY    43  32  65 S16       29.91F
$$

NEZ011>018-030>034-042>045-271800-
NORTHEAST NEBRASKA

CITY           SKY/WX    TMP DP  RH WIND       PRES   REMARKS
NORFOLK        MOSUNNY   38  25  59 S15       29.89F WCI  29
ALBION         SUNNY     41  27  55 S10G16    29.89F
BLAIR          SUNNY     42  30  62 S8        29.97F
FREMONT        PTSUNNY   43  29  58 SE8       29.96F
TEKAMAH        SUNNY     37  29  72 SE9       29.98S WCI  30
WAYNE          PTSUNNY   37  26  63 S7        29.92F WCI  31
$$

NEZ050>053-065>068-078-088>093-271800-
SOUTHEAST NEBRASKA

CITY           SKY/WX    TMP DP  RH WIND       PRES   REMARKS
LINCOLN        MOSUNNY   44  30  57 S7        29.97S
OMAHA EPPLEY   MOSUNNY   42  29  59 S9        29.99F
BEATRICE       PTSUNNY   49  30  48 SE13      29.95F
FALLS CITY     MOSUNNY   48  32  53 SE17G25   29.99F
NEBRASKA CITY  MOSUNNY   47  25  43 S12       29.97F
PLATTSMOUTH    MOSUNNY   45  27  50 SE7       29.97F
$$

NEZ044-045-051>053-067-271800-
OMAHA AREA

CITY           SKY/WX    TMP DP  RH WIND       PRES   REMARKS
OMAHA EPPLEY   MOSUNNY   42  29  59 S9        29.99F
BLAIR          SUNNY     42  30  62 S8        29.97F
FREMONT        PTSUNNY   43  29  58 SE8       29.96F
MILLARD        MOSUNNY   46  33  60 SE9       29.98F
OFFUTT AFB     SUNNY     44  30  58 E7        29.98F
PLATTSMOUTH    MOSUNNY   45  27  50 SE7       29.97F
WAHOO          FAIR      42  31  65 SE8       29.95F
$$




USA.gov is the U.S. government's official web portal to all federal, state and local government web resources and services.